LXRJE ELLX-EBCI

Flight info

Callsign LXRJE
Flight time 0h 52m
Altitude 12000
Route LNO
Aircraft B350/L-SBGRW/S

Departure

Time 2026-05-04 14:03
Airport Luxembourg-Findel International Airport (ELLX)

Arrival

Time 2026-05-04 14:56
Airport Brussels South Charleroi Airport (EBCI)
Time Latitude Longitude Altitude Speed Heading
2026-05-04 13:45 49.63131 6.21433 1214 ft 0 kts 60°
2026-05-04 13:52 49.63143 6.21423 1215 ft 0 kts 60°
2026-05-04 13:52 49.63125 6.21459 1215 ft 0 kts 219°
2026-05-04 13:52 49.63139 6.21432 1214 ft 0 kts 219°
2026-05-04 13:56 49.63137 6.21429 1214 ft 4 kts 219°
2026-05-04 13:56 49.63116 6.21383 1214 ft 8 kts 248°
2026-05-04 13:56 49.63075 6.21378 1214 ft 8 kts 151°
2026-05-04 13:57 49.63056 6.21393 1214 ft 0 kts 151°
2026-05-04 13:58 49.62961 6.21271 1207 ft 12 kts 245°
2026-05-04 13:58 49.62912 6.21115 1214 ft 17 kts 245°
2026-05-04 13:59 49.62866 6.20967 1214 ft 14 kts 244°
2026-05-04 13:59 49.62831 6.20853 1214 ft 12 kts 244°
2026-05-04 13:59 49.62688 6.20611 1214 ft 19 kts 217°
2026-05-04 14:00 49.62598 6.20467 1215 ft 17 kts 229°
2026-05-04 14:00 49.62458 6.20177 1217 ft 15 kts 239°
2026-05-04 14:00 49.62415 6.20065 1219 ft 10 kts 239°
2026-05-04 14:01 49.62383 6.19979 1220 ft 10 kts 240°
2026-05-04 14:01 49.62349 6.19886 1221 ft 10 kts 240°
2026-05-04 14:01 49.62259 6.19644 1223 ft 20 kts 241°
2026-05-04 14:02 49.62190 6.19552 1221 ft 15 kts 166°
2026-05-04 14:02 49.62119 6.19611 1221 ft 12 kts 148°
2026-05-04 14:02 49.62109 6.19720 1222 ft 0 kts 59°
2026-05-04 14:02 49.62194 6.19946 1222 ft 59 kts 60°
2026-05-04 14:03 49.62507 6.20773 1230 ft 119 kts 61°
2026-05-04 14:03 49.62979 6.21906 1742 ft 133 kts 59°
2026-05-04 14:03 49.63573 6.23276 2026 ft 170 kts 60°
2026-05-04 14:03 49.64272 6.24938 2341 ft 199 kts 60°
2026-05-04 14:04 49.65924 6.28862 2943 ft 232 kts 60°
2026-05-04 14:04 49.66801 6.30976 3251 ft 240 kts 60°
2026-05-04 14:04 49.67697 6.33152 3555 ft 240 kts 60°
2026-05-04 14:05 49.69690 6.37354 4163 ft 248 kts 44°
2026-05-04 14:05 49.71103 6.38908 4469 ft 252 kts 25°
2026-05-04 14:05 49.72809 6.39564 4794 ft 257 kts 358°
2026-05-04 14:06 49.73975 6.39291 4996 ft 257 kts 340°
2026-05-04 14:06 49.75658 6.38336 5297 ft 259 kts 335°
2026-05-04 14:06 49.77337 6.37293 5604 ft 261 kts 334°
2026-05-04 14:06 49.79023 6.36224 5909 ft 261 kts 334°
2026-05-04 14:07 49.80691 6.35172 6218 ft 257 kts 334°
2026-05-04 14:07 49.82330 6.34140 6519 ft 253 kts 334°
2026-05-04 14:07 49.83959 6.33114 6809 ft 251 kts 334°
2026-05-04 14:07 49.85570 6.32096 7102 ft 249 kts 334°
2026-05-04 14:08 49.87157 6.31086 7398 ft 249 kts 334°
2026-05-04 14:08 49.88761 6.30065 7699 ft 250 kts 334°
2026-05-04 14:08 49.90375 6.29037 7999 ft 250 kts 334°
2026-05-04 14:08 49.91976 6.27974 8315 ft 251 kts 332°
2026-05-04 14:09 49.95192 6.25710 8926 ft 253 kts 332°
2026-05-04 14:09 49.96780 6.24554 9233 ft 250 kts 332°
2026-05-04 14:10 49.99904 6.22259 9870 ft 247 kts 332°
2026-05-04 14:10 50.01456 6.21104 10164 ft 247 kts 332°
2026-05-04 14:10 50.02999 6.19950 10447 ft 246 kts 332°
2026-05-04 14:10 50.04544 6.18790 10739 ft 247 kts 332°
2026-05-04 14:11 50.06071 6.17642 11024 ft 247 kts 332°
2026-05-04 14:11 50.09166 6.15308 11626 ft 247 kts 332°
2026-05-04 14:11 50.10718 6.14136 11921 ft 247 kts 332°
2026-05-04 14:12 50.12290 6.12945 11992 ft 257 kts 332°
2026-05-04 14:12 50.13928 6.11695 12001 ft 265 kts 332°
2026-05-04 14:12 50.17279 6.09121 12011 ft 271 kts 332°
2026-05-04 14:13 50.18974 6.07815 12008 ft 272 kts 332°
2026-05-04 14:13 50.20673 6.06498 12007 ft 273 kts 332°
2026-05-04 14:13 50.22379 6.05165 12006 ft 274 kts 332°
2026-05-04 14:13 50.24084 6.03823 12005 ft 275 kts 332°
2026-05-04 14:14 50.25775 6.02491 12006 ft 276 kts 332°
2026-05-04 14:14 50.29199 5.99787 12007 ft 275 kts 332°
2026-05-04 14:14 50.30906 5.98432 12004 ft 275 kts 332°
2026-05-04 14:15 50.34324 5.95703 12000 ft 275 kts 332°
2026-05-04 14:15 50.37729 5.92965 12001 ft 274 kts 332°
2026-05-04 14:16 50.41066 5.90093 11997 ft 273 kts 326°
2026-05-04 14:16 50.42650 5.88444 11996 ft 273 kts 325°
2026-05-04 14:17 50.45787 5.85098 11997 ft 272 kts 325°
2026-05-04 14:17 50.47348 5.83419 11997 ft 272 kts 325°
2026-05-04 14:17 50.50460 5.80050 11997 ft 272 kts 325°
2026-05-04 14:18 50.52012 5.78362 11997 ft 271 kts 325°
2026-05-04 14:18 50.55096 5.74992 12001 ft 272 kts 324°
2026-05-04 14:19 50.58234 5.71549 11995 ft 275 kts 325°
2026-05-04 14:19 50.59787 5.69795 11990 ft 273 kts 320°
2026-05-04 14:19 50.61107 5.67684 11799 ft 275 kts 310°
2026-05-04 14:19 50.62325 5.65404 11547 ft 268 kts 309°
2026-05-04 14:20 50.63493 5.63154 11296 ft 263 kts 309°
2026-05-04 14:20 50.64642 5.60925 11041 ft 259 kts 309°
2026-05-04 14:20 50.65768 5.58727 10798 ft 256 kts 309°
2026-05-04 14:21 50.67943 5.54324 10298 ft 252 kts 306°
2026-05-04 14:21 50.68960 5.52123 10065 ft 251 kts 306°
2026-05-04 14:21 50.69980 5.49898 9821 ft 249 kts 306°
2026-05-04 14:21 50.70991 5.47684 9549 ft 248 kts 306°
2026-05-04 14:22 50.72001 5.45472 9285 ft 247 kts 306°
2026-05-04 14:22 50.73006 5.43274 9020 ft 246 kts 306°
2026-05-04 14:22 50.74010 5.41083 8762 ft 246 kts 306°
2026-05-04 14:22 50.75012 5.38894 8503 ft 246 kts 306°
2026-05-04 14:23 50.77013 5.34526 8006 ft 244 kts 306°
2026-05-04 14:23 50.77991 5.32394 7990 ft 235 kts 306°
2026-05-04 14:23 50.78951 5.30301 7987 ft 234 kts 306°
2026-05-04 14:24 50.79910 5.28212 7984 ft 235 kts 306°
2026-05-04 14:24 50.80865 5.26127 7981 ft 234 kts 306°
2026-05-04 14:24 50.81833 5.24086 7980 ft 234 kts 308°
2026-05-04 14:24 50.82863 5.22047 7975 ft 234 kts 308°
2026-05-04 14:25 50.83891 5.20090 7976 ft 234 kts 311°
2026-05-04 14:25 50.86063 5.16237 7972 ft 234 kts 311°
2026-05-04 14:25 50.87152 5.14317 7970 ft 234 kts 311°
2026-05-04 14:26 50.88222 5.12377 7970 ft 234 kts 309°
2026-05-04 14:26 50.89234 5.10360 7969 ft 234 kts 308°
2026-05-04 14:26 50.90234 5.08332 7967 ft 234 kts 307°
2026-05-04 14:26 50.91235 5.06295 7967 ft 234 kts 307°
2026-05-04 14:27 50.92233 5.04261 7970 ft 234 kts 308°
2026-05-04 14:27 50.93231 5.02229 7969 ft 234 kts 307°
2026-05-04 14:27 50.94229 5.00195 7967 ft 234 kts 307°
2026-05-04 14:27 50.95225 4.98159 7969 ft 233 kts 307°
2026-05-04 14:28 50.96222 4.96123 7971 ft 233 kts 307°
2026-05-04 14:28 50.97219 4.94088 7972 ft 233 kts 307°
2026-05-04 14:28 50.98205 4.92082 7963 ft 233 kts 308°
2026-05-04 14:28 50.99205 4.90053 7966 ft 233 kts 308°
2026-05-04 14:29 51.01156 4.85941 7964 ft 232 kts 296°
2026-05-04 14:29 51.00619 4.81268 7987 ft 230 kts 221°
2026-05-04 14:30 50.99179 4.80252 7984 ft 230 kts 185°
2026-05-04 14:30 50.97580 4.80357 7979 ft 231 kts 174°
2026-05-04 14:30 50.94377 4.80898 7980 ft 231 kts 179°
2026-05-04 14:31 50.92770 4.80829 7980 ft 231 kts 183°
2026-05-04 14:31 50.89553 4.80555 7979 ft 232 kts 183°
2026-05-04 14:32 50.86348 4.80267 7980 ft 232 kts 184°
2026-05-04 14:32 50.84735 4.80120 7980 ft 232 kts 184°
2026-05-04 14:32 50.83118 4.79970 7979 ft 233 kts 183°
2026-05-04 14:32 50.81503 4.79787 7978 ft 233 kts 186°
2026-05-04 14:33 50.79896 4.79484 7980 ft 233 kts 187°
2026-05-04 14:33 50.78286 4.79160 7983 ft 233 kts 187°
2026-05-04 14:33 50.76680 4.78833 7980 ft 233 kts 187°
2026-05-04 14:33 50.75024 4.78494 7665 ft 244 kts 187°
2026-05-04 14:34 50.73362 4.78151 7341 ft 239 kts 187°
2026-05-04 14:34 50.71723 4.77817 7027 ft 236 kts 187°
2026-05-04 14:34 50.70103 4.77486 6710 ft 233 kts 187°
2026-05-04 14:34 50.68497 4.77183 6392 ft 231 kts 185°
2026-05-04 14:35 50.66896 4.77037 6064 ft 230 kts 183°
2026-05-04 14:35 50.65294 4.76923 5615 ft 233 kts 182°
2026-05-04 14:35 50.63664 4.76811 5140 ft 235 kts 182°
2026-05-04 14:35 50.62035 4.76700 4664 ft 234 kts 182°
2026-05-04 14:36 50.60413 4.76544 4180 ft 232 kts 184°
2026-05-04 14:36 50.58822 4.76356 3711 ft 232 kts 185°
2026-05-04 14:36 50.57213 4.76165 3237 ft 231 kts 184°
2026-05-04 14:36 50.55631 4.75984 2981 ft 220 kts 185°
2026-05-04 14:37 50.54209 4.75570 2987 ft 198 kts 207°
2026-05-04 14:37 50.53386 4.74050 2982 ft 180 kts 253°
2026-05-04 14:37 50.53423 4.72170 2979 ft 170 kts 279°
2026-05-04 14:37 50.53495 4.70410 2962 ft 156 kts 251°
2026-05-04 14:38 50.52930 4.69030 2964 ft 148 kts 233°
2026-05-04 14:38 50.52375 4.67694 2959 ft 145 kts 238°
2026-05-04 14:38 50.51875 4.66340 2958 ft 142 kts 249°
2026-05-04 14:38 50.51615 4.64849 2959 ft 141 kts 255°
2026-05-04 14:39 50.51363 4.63339 2882 ft 145 kts 253°
2026-05-04 14:39 50.50979 4.61860 2778 ft 147 kts 243°
2026-05-04 14:39 50.50522 4.60413 2670 ft 149 kts 244°
2026-05-04 14:40 50.49617 4.57489 2435 ft 152 kts 243°
2026-05-04 14:40 50.49139 4.55977 2021 ft 165 kts 240°
2026-05-04 14:40 50.48481 4.54381 1519 ft 174 kts 236°
2026-05-04 14:40 50.47962 4.52756 1583 ft 151 kts 249°
2026-05-04 14:41 50.47716 4.51096 1850 ft 172 kts 261°
2026-05-04 14:41 50.47543 4.49116 2292 ft 186 kts 257°
2026-05-04 14:41 50.46781 4.44609 2351 ft 234 kts 249°
2026-05-04 14:42 50.45160 4.40051 2810 ft 236 kts 238°
2026-05-04 14:42 50.44013 4.38292 3178 ft 232 kts 205°
2026-05-04 14:42 50.42440 4.37987 3534 ft 230 kts 167°
2026-05-04 14:43 50.41098 4.39228 3886 ft 227 kts 130°
2026-05-04 14:43 50.40401 4.41481 3964 ft 237 kts 106°
2026-05-04 14:43 50.40000 4.44045 3964 ft 245 kts 103°
2026-05-04 14:43 50.39634 4.46614 3965 ft 238 kts 103°
2026-05-04 14:44 50.39512 4.49120 3964 ft 234 kts 79°
2026-05-04 14:44 50.40113 4.51465 3964 ft 231 kts 63°
2026-05-04 14:44 50.40850 4.53691 3963 ft 230 kts 63°
2026-05-04 14:44 50.41595 4.55904 3962 ft 229 kts 63°
2026-05-04 14:45 50.42344 4.58109 3958 ft 228 kts 63°
2026-05-04 14:45 50.43085 4.60280 3955 ft 223 kts 62°
2026-05-04 14:45 50.43813 4.62408 3957 ft 219 kts 62°
2026-05-04 14:45 50.44533 4.64505 3962 ft 217 kts 62°
2026-05-04 14:46 50.45237 4.66557 3972 ft 209 kts 63°
2026-05-04 14:46 50.45916 4.68543 3977 ft 204 kts 62°
2026-05-04 14:46 50.46582 4.70483 3978 ft 200 kts 63°
2026-05-04 14:46 50.47231 4.72371 3977 ft 198 kts 62°
2026-05-04 14:47 50.47884 4.74262 3978 ft 196 kts 62°
2026-05-04 14:47 50.48534 4.76142 3979 ft 195 kts 62°
2026-05-04 14:47 50.49179 4.78007 3980 ft 195 kts 62°
2026-05-04 14:47 50.49827 4.79881 3980 ft 194 kts 62°
2026-05-04 14:48 50.50489 4.81728 3976 ft 194 kts 54°
2026-05-04 14:48 50.51601 4.82841 3972 ft 194 kts 10°
2026-05-04 14:48 50.52891 4.82496 3972 ft 193 kts 335°
2026-05-04 14:48 50.54099 4.81561 3970 ft 192 kts 333°
2026-05-04 14:49 50.55223 4.80666 3979 ft 168 kts 333°
2026-05-04 14:49 50.56147 4.79804 3960 ft 146 kts 313°
2026-05-04 14:49 50.56379 4.78411 3958 ft 132 kts 250°
2026-05-04 14:49 50.55734 4.77496 3867 ft 133 kts 202°
2026-05-04 14:50 50.54862 4.76827 3529 ft 145 kts 221°
2026-05-04 14:50 50.54509 4.75369 3213 ft 149 kts 266°
2026-05-04 14:50 50.54393 4.74309 2996 ft 149 kts 251°
2026-05-04 14:50 50.53915 4.72435 2972 ft 132 kts 246°
2026-05-04 14:51 50.53576 4.71125 2964 ft 127 kts 246°
2026-05-04 14:51 50.53247 4.69852 2959 ft 124 kts 247°
2026-05-04 14:51 50.53042 4.69014 2960 ft 124 kts 248°
2026-05-04 14:51 50.52683 4.67791 2964 ft 123 kts 241°
2026-05-04 14:52 50.52275 4.66609 2958 ft 123 kts 240°
2026-05-04 14:52 50.51846 4.65374 2751 ft 134 kts 241°
2026-05-04 14:52 50.51393 4.64070 2626 ft 132 kts 240°
2026-05-04 14:52 50.50967 4.62839 2634 ft 126 kts 241°
2026-05-04 14:53 50.50553 4.61643 2619 ft 124 kts 241°
2026-05-04 14:53 50.50187 4.60361 2407 ft 134 kts 246°
2026-05-04 14:53 50.49812 4.59026 2241 ft 136 kts 248°
2026-05-04 14:53 50.49475 4.57621 2034 ft 138 kts 249°
2026-05-04 14:54 50.49095 4.56234 1814 ft 140 kts 244°
2026-05-04 14:54 50.48657 4.54897 1683 ft 135 kts 242°
2026-05-04 14:54 50.48308 4.53532 1542 ft 133 kts 251°
2026-05-04 14:54 50.47966 4.52207 1485 ft 130 kts 240°
2026-05-04 14:55 50.47456 4.50950 1212 ft 140 kts 238°
2026-05-04 14:55 50.47096 4.49498 890 ft 150 kts 257°
2026-05-04 14:55 50.46756 4.48033 693 ft 135 kts 242°
2026-05-04 14:55 50.46414 4.46845 631 ft 106 kts 239°
2026-05-04 14:56 50.46149 4.45875 587 ft 82 kts 240°
2026-05-04 14:56 50.46032 4.45454 592 ft 28 kts 242°
2026-05-04 14:56 50.45957 4.45196 593 ft 19 kts 243°
2026-05-04 14:56 50.45893 4.44973 598 ft 19 kts 249°
2026-05-04 14:57 50.45907 4.44805 600 ft 13 kts 326°
2026-05-04 14:57 50.45924 4.44790 599 ft 0 kts 333°
2026-05-04 14:57 50.45939 4.44778 599 ft 1 kts 333°
2026-05-04 14:57 50.45940 4.44778 599 ft 0 kts 333°
2026-05-04 14:58 50.45983 4.44765 599 ft 10 kts 11°
2026-05-04 14:58 50.46037 4.44837 598 ft 0 kts 67°
2026-05-04 14:58 50.46076 4.44974 596 ft 26 kts 66°
2026-05-04 14:59 50.46155 4.45245 593 ft 27 kts 66°
2026-05-04 14:59 50.46223 4.45482 590 ft 22 kts 65°
2026-05-04 14:59 50.46346 4.45906 585 ft 18 kts 65°
2026-05-04 15:00 50.46377 4.46013 584 ft 19 kts 67°
2026-05-04 15:00 50.46444 4.46243 581 ft 24 kts 67°
2026-05-04 15:00 50.46495 4.46423 579 ft 15 kts 65°
2026-05-04 15:01 50.46586 4.46546 577 ft 0 kts 331°
2026-05-04 15:01 50.46590 4.46543 577 ft 0 kts 331°
2026-05-04 15:02 50.46618 4.46518 577 ft 12 kts 332°
2026-05-04 15:02 50.46690 4.46468 577 ft 14 kts 17°
2026-05-04 15:02 50.46740 4.46579 576 ft 7 kts 76°
2026-05-04 15:02 50.46760 4.46681 576 ft 0 kts 71°
2026-05-04 15:03 50.46744 4.46701 575 ft 3 kts 157°